CAPE
34 16 4 0 16 20 4 0 0 0 0 0 0 0 0 0 0 0 0 0 0 0 0 0 0 0 0 0 0 0 0 0 0 0 0 0 0 0 0 0 0 0 0 0
34 17 0 3 0 4 17 15 2 17 35 21 6 0 0 0 0 0 0 0 0 0 0 0 0 0 0 0 0 0 0 0 0 0 0 0 0 0 0 0 0 0 0 0
1 0 0 2 2 13 5 4 1 0 0 0 0 0 0 0 0 0 0 0 0 0 0 0 0 0 0 0 0 0 0 0 0 0 0 0 0 0 0 0 0 0 0 0
24 2 2 2 1 1 0 0 0 3 21 6 0 0 0 0 0 0 0 0 0 0 0 0 0 0 0 0 0 0 0 0 0 0 0 0 0 0 0 0 0 0 0 0
0 0 0 0 0 0 0 0 0 12 8 14 0 24 0 0 0 0 0 0 0 0 0 0 0 0 0 0 0 0 0 0 0 0 0 0 0 0 0 0 0 0 0 0
0 0 0 0 0 0 0 4 0 0 5 24 0 13 0 0 0 0 0 0 0 0 0 0 0 0 0 0 0 0 0 0 0 0 0 0 0 0 0 0 0 0 0 0
1 0 0 0 1 1 41 34 4 3 22 0 0 0 0 0 0 0 0 0 0 0 0 0 0 0 0 0 0 0 0 0 0 4 0 0 0 0 1 3 0 0 0 0
0 0 0 0 0 0 0 0 2 0 0 0 0 0 0 0 0 0 0 0 0 0 0 0 0 0 0 0 0 0 0 0 0 8 17 27 22 27 22 22 13 0 0 0
0 0 0 0 0 0 0 12 0 0 0 0 0 0 0 0 0 0 0 0 0 0 0 0 0 0 0 0 0 0 0 0 0 0 10 43 82 61 52 45 43 24 15 0
0 0 0 0 0 0 0 0 4 3 13 4 0 0 0 0 0 0 0 0 0 0 0 0 0 0 0 0 0 0 0 0 0 0 0 0 41 117 147 109 117 88 58 35
0 0 0 0 0 0 0 6 8 1 0 2 0 0 0 0 0 0 0 0 0 0 0 0 0 0 0 0 0 0 0 0 0 0 0 0 0 0 70 160 211 210 161 101
0 0 0 0 0 0 0 0 4 31 0 0 0 0 0 0 0 0 0 0 0 0 0 0 0 0 0 0 0 0 0 0 0 0 0 0 0 0 0 0 79 219 237 223
0 1 0 0 0 0 0 0 0 0 0 0 1 0 0 0 0 0 0 0 0 0 0 0 0 0 0 0 0 0 0 0 0 0 0 0 0 0 0 0 0 0 21 220
4 0 0 0 0 0 0 0 0 0 5 0 0 0 0 0 0 0 0 0 0 0 0 0 0 0 0 0 0 0 0 0 0 0 0 0 0 0 0 0 0 0 0 0
0 0 0 0 0 0 0 0 0 0 0 0 0 0 0 0 0 0 0 0 0 0 0 0 0 0 0 0 0 0 0 0 0 0 0 0 0 0 0 0 0 0 0 0
0 0 0 0 0 0 0 0 0 0 0 0 0 0 0 0 0 0 0 0 0 0 0 0 0 0 0 0 0 0 0 0 0 0 0 0 1 0 2 2 2 0 0 0
0 0 0 0 0 0 0 0 0 0 0 0 0 0 0 0 0 0 0 0 0 0 0 0 0 0 0 0 0 0 0 0 0 0 0 0 0 1 2 2 2 1 0 0
0 0 0 0 0 1 0 0 0 0 0 0 0 0 0 0 0 0 0 0 0 0 0 0 0 0 0 0 0 0 0 0 0 0 1 0 0 1 1 0 1 1 2 1
0 0 0 0 0 0 0 0 0 0 0 0 0 0 0 0 0 0 0 0 0 0 0 0 0 0 0 0 0 0 0 0 0 0 1 1 2 3 0 0 0 1 2 0
0 0 0 0 0 0 0 0 0 0 0 0 0 0 0 0 0 0 0 0 0 0 0 0 0 0 0 0 0 0 0 0 0 1 2 4 5 2 0 0 2 2 1 1
0 0 0 0 0 0 0 0 0 0 0 0 0 0 0 0 0 0 0 0 0 0 0 0 0 0 0 0 0 0 0 1 2 3 3 4 2 1 1 1 3 4 1 0
0 0 0 0 0 0 0 0 0 0 0 0 0 0 0 0 0 0 0 0 0 0 0 0 0 0 0 0 0 0 0 1 3 5 3 0 0 2 3 1 5 5 4 0
0 0 0 0 0 0 0 0 0 0 0 0 0 0 0 0 0 0 0 0 0 0 0 0 0 0 0 0 0 0 0 2 4 2 0 0 0 2 4 3 6 10 8 5
0 0 0 0 0 0 0 0 0 0 0 0 0 0 0 0 0 0 0 0 0 0 0 0 0 0 0 0 0 0 1 3 0 0 0 0 1 1 1 4 3 6 14 11
0 0 0 0 0 0 0 0 0 0 0 0 0 0 0 0 0 0 0 0 0 0 0 0 0 0 0 0 0 0 0 1 1 0 0 0 0 0 6 6 4 7 10 10
0 0 0 0 0 0 0 0 0 0 0 0 0 0 0 0 0 0 0 0 0 0 0 0 0 0 0 0 0 0 0 0 0 0 0 0 1 0 2 4 3 1 4 5
CIN
-3 -0 -0 -0 -12 -12 -24 -0 -0 -0 -0 -0 -0 -0 -0 -0 -0 -0 -0 -0 -0 -0 -0 -0 -0 -0 -0 -0 -0 -0 -0 -0 -0 -0 -0 -0 -0 -0 -0 -0 -0 -0 -0 -0
-0 -0 -0 -11 -5 -15 -13 -8 -11 -14 -22 -14 -22 -0 -0 -0 -0 -0 -0 -0 -0 -0 -0 -0 -0 -0 -0 -0 -0 -0 -0 -0 -0 -0 -0 -0 -0 -0 -0 -0 -0 -0 -0 -0
-1 -1 -2 -6 -8 -8 -7 -0 -4 -1 -0 -0 -0 -0 -0 -0 -0 -0 -0 -0 -0 -0 -0 -0 -0 -0 -0 -0 -0 -0 -0 -0 -0 -0 -0 -0 -0 -0 -0 -0 -0 -0 -0 -0
-4 -4 -11 -5 -4 -10 -0 -0 -0 -10 -4 -0 -0 -0 -0 -0 -0 -0 -0 -0 -0 -0 -0 -0 -0 -0 -0 -0 -0 -0 -0 -0 -0 -0 -0 -0 -0 -0 -0 -0 -0 -0 -0 -0
-0 -0 -0 -0 -0 -0 -0 -0 -0 -21 -9 -3 -0 -1 -0 -0 -0 -0 -0 -0 -0 -0 -0 -0 -0 -0 -0 -0 -0 -0 -0 -0 -0 -0 -0 -0 -0 -0 -0 -0 -0 -0 -0 -0
-0 -0 -0 -0 -0 -0 -0 -23 -9 -21 -9 -0 -0 -5 -0 -0 -0 -0 -0 -0 -0 -0 -0 -0 -0 -0 -0 -0 -0 -0 -0 -0 -0 -0 -0 -0 -0 -0 -0 -0 -0 -0 -0 -0
-5 -0 -0 -0 -2 -13 -12 -5 -2 -10 -1 -0 -0 -0 -0 -0 -0 -0 -0 -0 -0 -0 -0 -0 -0 -0 -0 -0 -0 -0 -0 -0 -0 -477 -0 -0 -0 -0 -213 -244 -0 -0 -0 -0
-0 -0 -0 -0 -0 -0 -0 -0 -5 -0 -0 -0 -0 -0 -0 -0 -0 -0 -0 -0 -0 -0 -0 -0 -0 -0 -0 -0 -0 -0 -0 -0 -0 -390 -325 -274 -254 -206 -209 -207 -247 -0 -0 -0
-0 -0 -0 -0 -0 -0 -0 -0 -0 -0 -0 -0 -0 -0 -0 -0 -0 -0 -0 -0 -0 -0 -0 -0 -0 -0 -0 -0 -0 -0 -0 -0 -0 -0 -365 -239 -210 -170 -114 -124 -140 -165 -183 -7
-0 -0 -0 -0 -0 -0 -0 -0 -1 -0 -1 -2 -6 -0 -0 -0 -0 -0 -0 -0 -0 -0 -0 -0 -0 -0 -0 -0 -0 -0 -0 -0 -0 -0 -0 -0 -262 -180 -110 -66 -88 -103 -105 -107
-0 -0 -0 -0 -0 -0 -0 -6 -14 -8 -0 -5 -1 -0 -0 -0 -0 -0 -0 -0 -0 -0 -0 -0 -0 -0 -0 -0 -0 -0 -0 -0 -0 -0 -0 -0 -0 -0 -189 -70 -54 -77 -66 -56
-0 -0 -0 -0 -0 -0 -0 -0 -13 -5 -0 -0 -0 -0 -0 -0 -0 -0 -0 -0 -0 -0 -0 -0 -0 -0 -0 -0 -0 -0 -0 -0 -0 -0 -0 -0 -0 -0 -0 -9 -100 -39 -47 -40
-0 -0 -0 -0 -0 -0 -0 -0 -0 -0 -0 -0 -1 -0 -0 -0 -0 -0 -0 -0 -0 -0 -0 -0 -0 -0 -0 -0 -0 -0 -0 -0 -0 -0 -0 -0 -0 -0 -0 -0 -0 -0 -145 -47
-37 -0 -0 -0 -0 -0 -0 -0 -0 -0 -23 -0 -0 -0 -0 -0 -0 -0 -0 -0 -0 -0 -0 -0 -0 -0 -0 -0 -0 -0 -0 -0 -0 -0 -0 -0 -0 -0 -0 -0 -0 -0 -0 -0
-0 -0 -0 -0 -0 -0 -0 -0 -0 -0 -0 -0 -0 -0 -0 -0 -0 -0 -0 -0 -0 -0 -0 -0 -0 -0 -0 -0 -0 -0 -0 -0 -0 -0 -0 -0 -0 -0 -0 -0 -0 -0 -0 -0
-0 -0 -0 -0 -0 -0 -0 -0 -0 -0 -0 -0 -0 -0 -0 -0 -0 -0 -0 -0 -0 -0 -0 -0 -0 -0 -0 -0 -0 -0 -0 -0 -0 -0 -0 -0 -0 -0 -0 -0 -0 -0 -0 -0
-0 -0 -0 -0 -0 -0 -0 -0 -0 -0 -0 -0 -0 -0 -0 -0 -0 -0 -0 -0 -0 -0 -0 -0 -0 -0 -0 -0 -0 -0 -0 -0 -0 -0 -0 -0 -0 -0 -0 -0 -0 -0 -0 -0
-0 -0 -0 -0 -0 -2 -0 -0 -0 -0 -0 -0 -0 -0 -0 -0 -0 -0 -0 -0 -0 -0 -0 -0 -0 -0 -0 -0 -0 -0 -0 -0 -0 -0 -0 -0 -0 -0 -0 -0 -0 -0 -0 -0
-0 -0 -0 -0 -0 -0 -0 -0 -0 -0 -0 -0 -0 -0 -0 -0 -0 -0 -0 -0 -0 -0 -0 -0 -0 -0 -0 -0 -0 -0 -0 -0 -0 -0 -0 -0 -0 -0 -0 -0 -0 -0 -0 -0
-0 -0 -0 -0 -0 -0 -0 -0 -0 -0 -0 -0 -0 -0 -0 -0 -0 -0 -0 -0 -0 -0 -0 -0 -0 -0 -0 -0 -0 -0 -0 -0 -0 -0 -0 -0 -0 -0 -0 -0 -0 -0 -0 -0
-0 -0 -0 -0 -0 -0 -0 -0 -0 -0 -0 -0 -0 -0 -0 -0 -0 -0 -0 -0 -0 -0 -0 -0 -0 -0 -0 -0 -0 -0 -0 -0 -0 -0 -0 -0 -0 -0 -0 -0 -0 -0 -0 -1
-0 -0 -0 -0 -0 -0 -0 -0 -0 -0 -0 -0 -0 -0 -0 -0 -0 -0 -0 -0 -0 -0 -0 -0 -0 -0 -0 -0 -0 -0 -0 -0 -0 -0 -0 -0 -0 -0 -0 -0 -0 -0 -0 -0
-0 -0 -0 -0 -0 -0 -0 -0 -0 -0 -0 -0 -0 -0 -0 -0 -0 -0 -0 -0 -0 -0 -0 -0 -0 -0 -0 -0 -0 -0 -0 -0 -0 -0 -0 -0 -0 -0 -0 -0 -0 -0 -0 -0
-0 -0 -0 -0 -0 -0 -0 -0 -0 -0 -0 -0 -0 -0 -0 -0 -0 -0 -0 -0 -0 -0 -0 -0 -0 -0 -0 -0 -0 -0 -0 -0 -0 -0 -0 -0 -0 -0 -0 -0 -0 -0 -0 -0
-0 -0 -0 -0 -0 -0 -0 -0 -0 -0 -0 -0 -0 -0 -0 -0 -0 -0 -0 -0 -0 -0 -0 -0 -0 -0 -0 -0 -0 -0 -0 -0 -0 -0 -0 -0 -0 -0 -0 -0 -0 -0 -0 -0
-0 -0 -0 -0 -0 -0 -0 -0 -0 -0 -0 -0 -0 -0 -0 -0 -0 -0 -0 -0 -0 -0 -0 -0 -0 -0 -0 -0 -0 -0 -0 -0 -0 -0 -0 -0 -0 -0 -0 -0 -0 -0 -0 -0
Wind_Speed
4 5 12 12 9 8 3 3 5 3 6 3 7 12 10 7 9 12 13 12 13 13 13 13 13 11 11 13 13 15 15 18 12 10 11 11 13 11 10 11 13 14 13 14
3 16 8 6 6 7 7 8 4 5 4 3 12 20 13 6 9 16 18 16 16 15 12 12 14 14 10 14 15 16 17 17 14 12 12 11 12 10 10 9 11 14 15 15
15 4 10 8 5 7 6 11 5 8 0 4 6 23 14 14 6 10 12 12 14 14 17 17 12 11 11 11 14 15 16 18 16 18 11 9 8 7 7 10 10 15 15 15
9 10 7 6 12 9 13 6 7 5 3 8 7 13 3 5 10 7 11 12 8 13 14 14 14 13 10 14 12 13 15 16 16 17 14 17 14 14 13 12 12 12 16 17
7 11 13 13 7 9 4 6 8 6 5 2 11 7 1 2 7 14 9 10 10 9 10 15 16 16 15 9 9 11 14 15 17 15 16 14 16 13 11 10 13 14 12 16
5 2 8 7 5 11 5 5 2 3 3 9 10 8 21 6 7 6 3 9 8 10 12 13 14 13 13 10 9 10 10 14 13 14 16 19 18 16 12 12 11 11 10 11
5 7 2 3 5 2 5 5 2 2 7 9 3 8 19 6 9 10 8 10 10 8 9 10 14 15 11 12 12 8 7 8 9 11 13 16 19 18 19 16 12 13 11 11
12 5 13 8 11 6 9 11 8 6 5 5 3 8 10 11 9 4 4 6 5 7 8 10 13 15 15 15 15 11 9 7 5 7 12 14 16 12 12 13 11 11 12 13
9 8 3 5 6 15 7 11 13 3 1 1 5 8 11 11 15 3 4 4 6 7 8 12 13 16 18 18 17 17 17 14 12 9 8 10 11 12 13 14 13 11 13 12
7 1 6 8 4 7 8 9 3 5 6 10 5 5 10 6 2 5 5 8 9 7 8 13 15 16 16 16 18 19 19 17 16 16 13 11 9 9 12 13 14 14 14 15
6 3 1 7 10 16 8 8 4 5 5 5 2 8 9 11 5 3 2 5 6 8 9 11 11 12 13 16 18 18 19 18 19 17 17 14 13 13 10 11 14 15 15 16
6 4 5 9 3 6 18 17 15 7 6 3 3 12 7 7 5 4 1 3 7 8 9 10 12 12 14 15 16 15 17 17 17 16 16 16 15 14 13 13 14 13 15 16
11 6 3 7 5 1 7 12 11 10 3 14 4 12 1 7 4 6 8 8 6 9 11 11 13 14 14 14 16 16 15 15 16 17 17 17 16 16 17 16 16 15 15 14
17 4 13 15 4 8 7 7 13 12 5 15 16 20 24 3 4 7 6 6 7 9 10 11 12 13 13 13 13 15 16 15 16 17 16 16 17 17 17 17 17 16 15 16
11 8 6 4 4 5 7 12 12 17 25 11 18 17 3 4 4 5 6 7 8 9 11 12 13 13 13 14 15 15 13 15 17 17 15 16 16 16 17 17 17 18 16 14
7 6 10 4 6 5 4 8 11 15 9 15 14 21 6 5 7 6 7 7 8 8 9 11 12 14 14 17 17 16 17 16 17 15 15 15 16 17 17 17 18 18 17 16
10 5 3 6 1 5 8 20 13 7 8 13 15 15 6 4 5 5 5 7 8 10 12 13 13 13 13 15 16 14 17 17 16 16 16 15 17 17 17 17 17 17 17 17
12 11 4 4 2 9 6 3 11 21 16 14 4 6 5 4 2 8 7 7 7 9 12 12 12 14 15 14 13 14 15 14 14 15 14 16 18 19 18 19 17 17 16 17
16 12 4 6 5 5 6 5 7 9 9 5 9 7 4 2 5 3 6 7 7 9 9 10 12 15 16 15 16 16 16 15 16 15 17 18 18 20 20 20 20 19 17 17
4 15 10 4 7 12 5 1 3 4 12 6 9 8 5 2 4 3 7 9 9 10 9 12 12 13 13 15 16 17 16 16 16 18 19 18 18 19 20 20 20 18 16 17
9 9 15 7 4 9 6 5 2 7 5 8 5 8 5 4 2 3 8 10 9 10 12 10 10 12 13 14 16 16 16 16 18 18 18 18 18 19 19 19 18 19 17 17
12 11 7 3 3 14 1 4 11 5 7 9 6 5 6 3 2 4 6 7 8 9 10 12 11 12 13 14 14 16 16 17 17 17 18 18 18 15 15 19 18 18 16 16
5 7 9 8 6 3 4 4 4 3 7 5 6 6 5 4 2 2 3 5 7 9 11 11 12 13 12 13 14 16 17 17 17 17 17 15 17 16 16 17 17 15 14 12
2 0 4 4 3 4 6 6 5 6 9 9 7 7 6 4 2 1 3 5 6 7 9 10 11 11 12 12 14 14 15 16 16 16 17 15 16 18 17 14 14 14 13 13
2 3 6 2 1 2 6 5 9 10 9 9 7 6 6 3 3 3 3 3 4 6 8 7 9 10 11 13 13 14 14 15 15 15 14 14 13 16 16 15 14 14 15 17
4 7 8 8 8 3 3 13 10 10 8 6 7 6 5 3 3 2 2 2 4 6 7 7 7 9 10 11 12 13 14 15 15 14 13 12 12 14 13 14 16 22 28 31
Wind_Direction
168 193 210 206 218 229 131 184 209 216 238 256 256 276 277 276 301 285 283 279 276 267 258 259 259 248 233 231 220 220 217 221 207 207 204 211 218 215 227 210 209 207 206 206
175 223 202 188 208 217 230 237 218 245 211 235 273 274 274 243 248 269 276 279 273 275 272 254 253 258 240 239 227 226 219 221 212 209 216 215 216 222 223 223 209 209 211 207
211 243 175 182 176 193 215 227 194 226 30 266 289 277 265 265 243 262 266 251 265 263 275 281 272 259 256 242 233 225 224 219 214 214 213 218 224 233 210 218 215 212 210 211
230 234 178 187 216 178 238 194 190 215 193 254 159 286 159 259 273 250 264 283 271 271 281 281 283 278 255 253 241 233 229 222 219 212 211 209 211 217 221 220 228 224 197 211
211 178 185 208 188 178 219 157 174 181 207 284 240 271 201 193 277 272 273 267 278 282 281 288 290 285 281 258 249 236 230 225 222 212 209 213 219 227 229 223 223 221 219 206
230 210 187 192 156 182 136 99 58 99 198 245 242 202 280 250 228 292 280 288 314 310 308 309 312 302 290 286 277 262 230 225 220 214 210 217 221 223 223 223 223 223 217 218
161 211 220 151 119 71 167 114 273 312 212 237 149 188 246 296 278 246 275 303 309 326 316 336 343 353 339 332 320 299 251 237 224 218 219 219 224 224 226 223 220 223 221 218
206 228 181 185 196 161 204 198 215 202 209 237 140 226 252 247 268 313 246 268 318 347 335 346 350 352 354 2 355 345 329 295 257 225 230 232 231 231 235 236 234 234 232 229
182 235 137 182 155 165 188 200 218 310 135 24 227 279 286 269 277 294 51 352 3 353 348 356 2 4 7 8 10 7 5 7 5 332 309 264 245 241 245 243 241 241 242 239
201 187 192 191 126 213 171 153 137 175 233 241 240 250 243 272 87 133 2 5 351 346 360 15 21 17 13 11 7 11 11 13 13 4 355 329 294 268 257 251 248 242 243 242
153 127 43 122 204 191 189 206 195 135 166 184 227 250 210 251 214 177 108 340 335 354 32 28 17 14 13 11 9 6 6 3 5 359 345 341 332 324 289 261 254 248 245 242
177 154 192 207 214 203 217 221 208 214 218 236 283 267 138 152 148 126 296 352 37 45 24 21 22 10 10 13 2 3 3 358 356 349 342 340 336 335 324 307 286 270 257 250
171 207 73 334 343 58 193 213 219 226 71 228 173 259 134 120 28 11 39 63 48 39 23 16 16 14 4 8 2 349 359 352 346 344 341 340 342 341 335 326 315 303 287 267
169 188 205 218 212 141 193 186 193 198 197 242 225 256 259 289 305 34 67 62 52 37 22 11 7 3 1 359 345 346 357 349 344 337 338 336 337 337 336 327 323 316 309 297
170 221 202 248 184 171 194 201 184 203 224 194 245 226 167 165 136 106 78 56 41 28 17 6 357 353 350 349 348 344 338 339 343 332 333 333 328 334 330 328 327 322 315 305
187 238 181 241 196 196 224 218 205 216 223 233 250 257 122 121 101 84 69 50 31 11 3 355 350 348 347 346 341 335 340 339 332 326 328 327 335 332 328 327 325 321 315 312
189 160 109 244 169 115 270 234 203 202 197 200 224 241 156 121 107 120 89 57 25 1 353 346 345 342 341 336 333 339 330 330 324 326 325 332 333 324 324 321 320 317 318 314
182 194 179 168 121 215 252 318 210 212 219 213 152 127 119 115 82 113 77 49 14 3 348 342 338 336 334 332 331 331 327 323 324 323 326 333 327 322 322 319 318 317 315 313
199 174 170 161 196 296 261 206 171 171 246 169 132 137 141 131 128 149 70 35 14 356 345 336 339 333 330 331 336 330 330 331 330 333 336 329 325 320 320 318 318 315 308 306
217 184 203 149 174 208 245 147 106 114 261 164 136 143 149 148 158 167 8 10 1 355 346 342 337 327 329 337 334 332 333 334 337 336 329 325 319 316 312 310 308 308 300 299
188 195 211 199 215 283 226 165 155 159 237 132 122 133 143 143 79 10 356 359 353 345 337 337 339 336 338 335 336 333 332 335 333 326 323 319 317 312 306 304 303 300 302 300
173 176 195 110 172 252 90 103 176 135 96 129 121 125 144 121 34 356 338 330 341 344 342 349 344 338 342 341 337 333 331 332 327 324 320 318 315 312 307 305 307 299 298 297
190 184 184 183 200 52 20 63 68 103 134 148 133 132 132 130 102 306 321 342 351 351 346 349 343 338 340 339 340 333 332 329 326 324 319 317 317 315 312 308 308 304 298 296
180 85 127 129 136 137 124 89 88 85 117 122 114 126 112 114 191 69 11 4 354 349 347 348 343 342 335 335 330 327 324 329 324 323 322 324 326 323 318 312 313 313 306 301
141 85 112 69 127 102 217 192 141 121 119 116 109 114 122 158 112 65 51 13 343 340 343 345 345 335 327 327 329 330 328 328 328 325 325 331 328 325 321 318 315 311 307 306
174 165 186 219 175 131 150 153 148 141 137 130 135 122 106 98 98 70 70 26 359 352 346 340 334 327 325 329 324 322 333 334 332 326 330 334 332 328 326 322 320 320 318 317